Weather History for Aberdeen, SD

Change the Weather History Date:

Friday, March 15, 2013

  Actual Average Record
Temperature  
Mean Temperature 21 °F 29 °F  
Max Temperature 30 °F 39 °F 67 °F (1910)
Min Temperature 12 °F 20 °F -29 °F (1897)
Degree Days  
Heating Degree Days 44 36  
Month to date heating degree days 677 582  
Since 1 July heating degree days 7091 7045  
Cooling Degree Days 0 0  
Month to date cooling degree days 0 0  
Year to date cooling degree days 0 0  
Moisture  
Dew Point 17 °F    
Average Humidity 82    
Maximum Humidity 88    
Minimum Humidity 75    
Precipitation  
Precipitation T in 0.03 in 0.62 in (1943)
Month to date precipitation 0.21 0.47  
Year to date precipitation 2.05 1.49  
Snow  
Snow T in - - ()
Month to date snowfall 1.2  
Since 1 July snowfall 40.3  
Snow Depth 6.00 in    
Sea Level Pressure  
Sea Level Pressure 30.02 in    
Wind  
Wind Speed 16 mph (NNE)    
Max Wind Speed 22 mph    
Max Gust Speed 30 mph    
Visibility 8 miles    
Events Snow    
T = Trace of Precipitation, MM = Missing Value Source: NWS Daily Summary

Daily Weather History Graph

Daily Weather History Graph

Search for Another Location

Airport:

Trip Planner

Search our weather history database for the weather conditions in past years. The results will help you decide how hot, cold, wet, or windy it might be!

Date:

Astronomy

Mar. 15, 2013 Rise Set
Actual Time 7:45 AM CDT 7:39 PM CDT
Civil Twilight 7:16 AM CDT 8:09 PM CDT
Nautical Twilight 6:41 AM CDT 8:43 PM CDT
Astronomical Twilight 6:06 AM CDT 9:19 PM CDT
Moon 9:24 AM CDT (3/15) No Moon Set
Length of Visible Light 12h 53m
Length of Day
11h 54m
Waxing Crescent, 15% of the Moon is Illuminated
Mar 15
Waxing Crescent
Mar 19
First Quarter
Mar 27
Full
Apr 2
Last Quarter
Apr 10
New

Hourly Weather History & Observations

Time (CDT) Temp. Windchill Dew Point Humidity Pressure Visibility Wind Dir Wind Speed Gust Speed Precip Events Conditions
12:42 AM 32.0 °F 20.5 °F 26.6 °F 80% 30.03 in 9.0 mi NE 18.4 mph - N/A   Overcast
12:53 AM 30.9 °F 18.4 °F 26.1 °F 82% 30.06 in 9.0 mi NE 20.7 mph 27.6 mph N/A   Overcast
1:53 AM 28.0 °F 17.0 °F 23.0 °F 81% 30.07 in 10.0 mi NE 13.8 mph - N/A   Overcast
2:53 AM 26.1 °F 13.6 °F 19.9 °F 78% 30.04 in 10.0 mi NE 16.1 mph - N/A   Overcast
3:53 AM 24.8 °F 11.9 °F 19.4 °F 80% 29.98 in 10.0 mi NE 16.1 mph - N/A   Overcast
4:22 AM 24.8 °F 11.5 °F 21.2 °F 86% 29.97 in 9.0 mi NE 17.3 mph - N/A   Overcast
4:41 AM 24.8 °F 11.1 °F 19.4 °F 80% 29.97 in 9.0 mi NE 18.4 mph - N/A   Overcast
4:53 AM 24.1 °F 11.0 °F 19.9 °F 84% 30.01 in 10.0 mi NNE 16.1 mph - N/A   Overcast
5:53 AM 24.1 °F 10.6 °F 19.0 °F 81% 30.01 in - NNE 17.3 mph 24.2 mph N/A   Overcast
6:53 AM 21.9 °F 7.8 °F 18.0 °F 85% 30.03 in - NNE 17.3 mph - N/A   Overcast
7:12 AM 21.2 °F 6.8 °F 17.6 °F 86% 29.97 in 7.0 mi North 17.3 mph 25.3 mph N/A   Overcast
7:53 AM 21.9 °F 6.9 °F 18.0 °F 85% 30.00 in - NE 19.6 mph 25.3 mph N/A   Overcast
8:53 AM 21.0 °F 5.4 °F 17.1 °F 85% 30.03 in 9.0 mi NNE 20.7 mph 29.9 mph N/A   Overcast
9:53 AM 21.0 °F 7.6 °F 17.1 °F 85% 30.01 in 10.0 mi NE 15.0 mph - N/A   Overcast
10:53 AM 21.0 °F 8.1 °F 17.1 °F 85% 30.00 in 10.0 mi NE 13.8 mph - N/A   Overcast
11:53 AM 21.9 °F 9.2 °F 17.1 °F 82% 29.99 in 10.0 mi NNE 13.8 mph - N/A   Overcast
12:53 PM 21.9 °F 10.4 °F 17.1 °F 82% 30.00 in 10.0 mi NNE 11.5 mph - N/A   Overcast
1:53 PM 21.9 °F 9.8 °F 18.0 °F 85% 29.97 in 10.0 mi NE 12.7 mph - N/A   Overcast
2:53 PM 23.0 °F 11.7 °F 18.0 °F 81% 29.95 in 9.0 mi NNE 11.5 mph - N/A   Overcast
3:53 PM 21.9 °F 9.8 °F 18.0 °F 85% 29.96 in 9.0 mi NNE 12.7 mph - N/A   Overcast
4:53 PM 21.0 °F 7.6 °F 17.1 °F 85% 29.98 in 9.0 mi North 15.0 mph - N/A   Overcast
5:53 PM 19.0 °F 4.5 °F 15.1 °F 85% 29.98 in 10.0 mi North 16.1 mph - N/A   Overcast
6:53 PM 18.0 °F 2.2 °F 14.0 °F 84% 30.02 in 6.0 mi North 18.4 mph - N/A   Overcast
7:25 PM 17.6 °F 4.3 °F 14.0 °F 86% 29.94 in 2.5 mi North 12.7 mph - N/A   Overcast
7:33 PM 17.6 °F 6.4 °F 14.0 °F 86% 29.92 in 3.0 mi NNE 9.2 mph - N/A   Overcast
7:53 PM 18.0 °F 2.2 °F 14.0 °F 84% 30.06 in 6.0 mi North 18.4 mph - N/A   Overcast
8:03 PM 17.6 °F 2.2 °F 14.0 °F 86% 29.99 in 7.0 mi NNW 17.3 mph - N/A   Overcast
8:53 PM 17.1 °F 2.0 °F 12.9 °F 84% 30.07 in 9.0 mi North 16.1 mph - N/A   Overcast
9:53 PM 16.0 °F 0.6 °F 12.0 °F 84% 30.10 in 9.0 mi North 16.1 mph - N/A   Overcast
10:37 PM 14.0 °F -3.0 °F 10.4 °F 86% 30.06 in 6.0 mi North 18.4 mph 25.3 mph 0.00 in Snow Light Snow
10:53 PM 14.0 °F -3.0 °F 9.0 °F 80% 30.14 in 6.0 mi North 18.4 mph - 0.00 in Snow Light Snow
11:53 PM 12.9 °F -4.4 °F 8.1 °F 81% 30.15 in 6.0 mi North 18.4 mph - 0.00 in Snow Light Snow